DLH9815 EDDH-EDDW

Flight info

Callsign DLH9815
Flight time 0h 21m
Altitude 10000
Route WSN5C/05 WSN L23 GIBMA
Aircraft A321/M-DE2E3FGIJ1LORVWXYZ/HB2

Departure

Time 2026-04-20 23:25
Airport Hamburg Helmut Schmidt Airport (EDDH)

Arrival

Time 2026-04-20 23:46
Airport Bremen Airport (EDDW)
Time Latitude Longitude Altitude Speed Heading
2026-04-20 23:11 53.62770 9.99174 47 ft 0 kts 63°
2026-04-20 23:18 53.62768 9.99170 47 ft 2 kts 63°
2026-04-20 23:18 53.62757 9.99131 43 ft 4 kts 63°
2026-04-20 23:19 53.62744 9.99090 43 ft 4 kts 63°
2026-04-20 23:19 53.62734 9.99058 43 ft 4 kts 47°
2026-04-20 23:19 53.62714 9.99040 43 ft 4 kts 349°
2026-04-20 23:19 53.62700 9.99048 43 ft 0 kts 333°
2026-04-20 23:22 53.62720 9.99029 43 ft 8 kts 331°
2026-04-20 23:22 53.62778 9.98977 46 ft 10 kts 332°
2026-04-20 23:22 53.62842 9.98913 47 ft 10 kts 305°
2026-04-20 23:22 53.62814 9.98802 47 ft 11 kts 233°
2026-04-20 23:23 53.62760 9.98693 47 ft 13 kts 230°
2026-04-20 23:23 53.62700 9.98573 47 ft 14 kts 230°
2026-04-20 23:23 53.62635 9.98440 47 ft 15 kts 231°
2026-04-20 23:23 53.62565 9.98298 47 ft 16 kts 230°
2026-04-20 23:24 53.62489 9.98145 47 ft 18 kts 230°
2026-04-20 23:24 53.62437 9.97972 47 ft 15 kts 255°
2026-04-20 23:24 53.62448 9.97806 42 ft 16 kts 311°
2026-04-20 23:24 53.62525 9.97790 39 ft 6 kts 44°
2026-04-20 23:25 53.62615 9.97968 41 ft 52 kts 50°
2026-04-20 23:25 53.62999 9.98741 48 ft 131 kts 49°
2026-04-20 23:25 53.63636 10.00004 761 ft 136 kts 52°
2026-04-20 23:25 53.64208 10.01147 1989 ft 121 kts 57°
2026-04-20 23:26 53.64772 10.02301 2409 ft 140 kts 57°
2026-04-20 23:26 53.65425 10.03674 2723 ft 159 kts 56°
2026-04-20 23:26 53.66156 10.05181 3064 ft 179 kts 54°
2026-04-20 23:26 53.66965 10.06851 3639 ft 187 kts 54°
2026-04-20 23:27 53.67818 10.08554 4301 ft 194 kts 52°
2026-04-20 23:27 53.68758 10.10237 4973 ft 202 kts 42°
2026-04-20 23:27 53.70103 10.11082 5639 ft 218 kts
2026-04-20 23:27 53.71603 10.10267 6131 ft 246 kts 326°
2026-04-20 23:28 53.72734 10.07921 6556 ft 270 kts 303°
2026-04-20 23:28 53.73625 10.05008 6994 ft 286 kts 297°
2026-04-20 23:28 53.74430 10.01901 7657 ft 292 kts 291°
2026-04-20 23:28 53.74772 9.98495 8360 ft 298 kts 271°
2026-04-20 23:29 53.74543 9.95013 9085 ft 301 kts 256°
2026-04-20 23:29 53.73810 9.91678 9815 ft 304 kts 246°
2026-04-20 23:29 53.72971 9.88377 10361 ft 308 kts 247°
2026-04-20 23:29 53.72103 9.84931 10498 ft 330 kts 247°
2026-04-20 23:30 53.71177 9.81236 10521 ft 355 kts 247°
2026-04-20 23:30 53.70178 9.77261 10525 ft 378 kts 247°
2026-04-20 23:30 53.69117 9.73056 10523 ft 397 kts 247°
2026-04-20 23:30 53.68036 9.68799 10521 ft 402 kts 247°
2026-04-20 23:31 53.66927 9.64457 10530 ft 403 kts 246°
2026-04-20 23:31 53.65814 9.60142 10526 ft 403 kts 245°
2026-04-20 23:31 53.64436 9.56025 10520 ft 403 kts 235°
2026-04-20 23:31 53.62789 9.52185 10524 ft 403 kts 233°
2026-04-20 23:32 53.61143 9.48367 10527 ft 403 kts 233°
2026-04-20 23:32 53.59501 9.44546 10524 ft 402 kts 233°
2026-04-20 23:32 53.57863 9.40729 10520 ft 402 kts 233°
2026-04-20 23:32 53.56225 9.36922 10509 ft 402 kts 233°
2026-04-20 23:33 53.54585 9.33122 10490 ft 402 kts 233°
2026-04-20 23:33 53.52941 9.29317 10493 ft 401 kts 233°
2026-04-20 23:33 53.51298 9.25519 10499 ft 401 kts 233°
2026-04-20 23:33 53.49692 9.21807 10278 ft 384 kts 233°
2026-04-20 23:34 53.48175 9.18299 10260 ft 357 kts 233°
2026-04-20 23:34 53.46795 9.15108 10249 ft 320 kts 233°
2026-04-20 23:34 53.45526 9.12184 10248 ft 306 kts 233°
2026-04-20 23:34 53.44270 9.09297 10251 ft 305 kts 233°
2026-04-20 23:35 53.43023 9.06433 10166 ft 303 kts 233°
2026-04-20 23:35 53.40546 9.00766 9896 ft 303 kts 233°
2026-04-20 23:35 53.39284 8.97890 9756 ft 302 kts 232°
2026-04-20 23:36 53.38039 8.95063 9617 ft 301 kts 232°
2026-04-20 23:36 53.36798 8.92243 9482 ft 300 kts 232°
2026-04-20 23:36 53.35504 8.89505 9353 ft 299 kts 225°
2026-04-20 23:36 53.33977 8.87256 9221 ft 296 kts 213°
2026-04-20 23:37 53.32203 8.85535 9088 ft 293 kts 202°
2026-04-20 23:37 53.30347 8.84128 8957 ft 293 kts 202°
2026-04-20 23:37 53.28495 8.82713 8827 ft 292 kts 202°
2026-04-20 23:37 53.26654 8.81299 8693 ft 291 kts 202°
2026-04-20 23:38 53.24838 8.79895 8559 ft 282 kts 202°
2026-04-20 23:38 53.23091 8.78542 8421 ft 272 kts 202°
2026-04-20 23:38 53.21376 8.77420 8295 ft 259 kts 191°
2026-04-20 23:38 53.19625 8.76997 8117 ft 252 kts 182°
2026-04-20 23:39 53.17958 8.76161 7798 ft 254 kts 211°
2026-04-20 23:39 53.16681 8.74141 7478 ft 255 kts 234°
2026-04-20 23:39 53.15904 8.71509 7161 ft 254 kts 253°
2026-04-20 23:39 53.15377 8.68712 6830 ft 253 kts 252°
2026-04-20 23:40 53.14824 8.65923 6442 ft 254 kts 251°
2026-04-20 23:40 53.14251 8.63102 5987 ft 257 kts 251°
2026-04-20 23:40 53.13673 8.60287 5550 ft 258 kts 251°
2026-04-20 23:40 53.13095 8.57481 5185 ft 255 kts 251°
2026-04-20 23:41 53.12521 8.54695 4841 ft 254 kts 250°
2026-04-20 23:41 53.11857 8.51988 4509 ft 252 kts 237°
2026-04-20 23:41 53.10673 8.49910 4200 ft 246 kts 211°
2026-04-20 23:41 53.09122 8.48826 3891 ft 240 kts 187°
2026-04-20 23:42 53.07494 8.48801 3396 ft 236 kts 164°
2026-04-20 23:42 53.06029 8.49815 3246 ft 225 kts 142°
2026-04-20 23:42 53.04919 8.51588 3079 ft 220 kts 123°
2026-04-20 23:42 53.04273 8.53850 2880 ft 215 kts 103°
2026-04-20 23:43 53.04146 8.56303 2616 ft 213 kts 88°
2026-04-20 23:43 53.04209 8.58739 2330 ft 209 kts 88°
2026-04-20 23:43 53.04270 8.61139 2046 ft 206 kts 88°
2026-04-20 23:43 53.04326 8.63439 1764 ft 193 kts 88°
2026-04-20 23:44 53.04377 8.65560 1510 ft 174 kts 87°
2026-04-20 23:44 53.04422 8.67477 1275 ft 158 kts 86°
2026-04-20 23:44 53.04464 8.69226 1075 ft 144 kts 85°
2026-04-20 23:44 53.04502 8.70835 860 ft 139 kts 85°
2026-04-20 23:45 53.04540 8.72435 669 ft 137 kts 84°
2026-04-20 23:45 53.04569 8.74014 466 ft 136 kts 84°
2026-04-20 23:45 53.04603 8.75591 278 ft 135 kts 85°
2026-04-20 23:45 53.04645 8.77120 94 ft 130 kts 83°
2026-04-20 23:46 53.04686 8.78526 23 ft 107 kts 88°
2026-04-20 23:46 53.04706 8.79481 23 ft 58 kts 88°
2026-04-20 23:46 53.04716 8.79898 23 ft 20 kts 77°
2026-04-20 23:46 53.04799 8.79983 24 ft 13 kts
2026-04-20 23:47 53.04868 8.79892 23 ft 14 kts 290°
2026-04-20 23:47 53.04874 8.79728 25 ft 15 kts 266°
2026-04-20 23:47 53.04870 8.79552 23 ft 16 kts 268°
2026-04-20 23:47 53.04865 8.79355 23 ft 18 kts 268°
2026-04-20 23:48 53.04860 8.79144 22 ft 19 kts 268°
2026-04-20 23:48 53.04857 8.78936 20 ft 12 kts 282°
2026-04-20 23:48 53.04909 8.78843 22 ft 11 kts 319°
2026-04-20 23:48 53.04970 8.78754 22 ft 12 kts 317°
2026-04-20 23:49 53.05011 8.78625 22 ft 13 kts 286°
2026-04-20 23:49 53.05058 8.78536 22 ft 10 kts 319°
2026-04-20 23:49 53.05104 8.78536 22 ft 5 kts 49°
2026-04-20 23:49 53.05125 8.78575 22 ft 5 kts 48°
2026-04-20 23:50 53.05133 8.78590 22 ft 2 kts 47°
2026-04-20 23:50 53.05137 8.78597 22 ft 0 kts 47°